KC5TIL-3 Weather Reports


Display with metric or nautical units.
time (UTC)temp
F
wind
direction
speed
MPH
gust
MPH
rain 1hr
in
rain 24hr
in
rain mn
in
humidity
%
barometer
mb
20260508005547 67 131 3.0 7.0 0.00 0.04 0.00 26 1012.8
20260508005048 67 216 5.0 7.0 0.00 0.04 0.00 26 1012.8
20260508004550 67 176 3.0 8.0 0.00 0.04 0.00 26 1012.8
20260508004049 67 184 5.0 7.0 0.00 0.04 0.00 25 1012.8
20260508003551 68 210 5.0 7.0 0.00 0.04 0.00 26 1012.8
20260508003048 68 152 4.0 6.0 0.00 0.04 0.00 26 1012.8
20260508002547 68 205 4.0 7.0 0.00 0.04 0.00 25 1012.8
20260508002049 68 215 3.0 7.0 0.00 0.04 0.00 25 1012.8
20260508001550 68 134 3.0 7.0 0.00 0.04 0.00 25 1012.8
20260508001044 68 206 4.0 6.0 0.00 0.04 0.00 25 1012.8
20260508000547 69 165 4.0 7.0 0.00 0.04 0.00 25 1012.8
20260508000043 68 167 4.0 6.0 0.00 0.04 0.00 24 1012.8
20260507235542 69 207 0.0 6.0 0.00 0.04 0.00 25 1012.8
20260507235043 68 202 3.0 8.0 0.00 0.04 0.00 25 1012.8
20260507234545 68 198 5.0 6.0 0.00 0.04 0.00 25 1012.8
20260507234039 68 205 3.0 7.0 0.00 0.04 0.00 25 1012.8
20260507233043 69 148 4.0 8.0 0.00 0.04 0.00 24 1012.8
20260507232542 69 183 6.0 9.0 0.00 0.04 0.00 24 1012.8
20260507232043 69 204 4.0 7.0 0.00 0.04 0.00 24 1012.8
20260507231545 69 227 4.0 7.0 0.00 0.04 0.00 24 1012.8
20260507231044 69 200 4.0 7.0 0.00 0.04 0.00 24 1012.8
20260507230546 69 188 4.0 8.0 0.00 0.04 0.00 23 1012.8
20260507230048 69 204 5.0 8.0 0.00 0.04 0.00 23 1012.8
20260507225043 70 202 4.0 6.0 0.00 0.04 0.00 22 1012.8
20260507224540 70 131 4.0 5.0 0.00 0.04 0.00 22 1012.8
20260507224039 70 131 4.0 6.0 0.00 0.04 0.00 22 1012.8
20260507223541 70 134 3.0 4.0 0.00 0.04 0.00 22 1012.8
20260507223043 70 134 3.0 6.0 0.00 0.04 0.00 22 1012.8
20260507222043 70 120 4.0 6.0 0.00 0.04 0.00 22 1012.8
20260507221545 70 122 4.0 7.0 0.00 0.04 0.00 22 1012.8
20260507221044 70 125 5.0 7.0 0.00 0.04 0.00 22 1012.8
20260507220546 70 124 3.0 5.0 0.00 0.04 0.00 22 1012.8
20260507220048 70 125 4.0 6.0 0.00 0.04 0.00 22 1012.8
20260507215546 70 119 5.0 6.0 0.00 0.04 0.00 22 1012.8
20260507215048 70 123 5.0 7.0 0.00 0.04 0.00 22 1013.8
20260507214540 70 109 0.0 7.0 0.00 0.04 0.00 22 1013.8
20260507214040 70 120 4.0 8.0 0.00 0.04 0.00 22 1013.8
20260507213541 70 118 6.0 8.0 0.00 0.04 0.00 22 1013.8
20260507213043 70 115 7.0 9.0 0.00 0.04 0.00 22 1013.8
20260507212541 69 114 6.0 7.0 0.00 0.04 0.00 22 1013.8
20260507212043 70 115 5.0 8.0 0.00 0.04 0.00 22 1013.8
20260507211545 70 101 6.0 8.0 0.00 0.04 0.00 22 1013.8
20260507211044 70 181 4.0 7.0 0.00 0.04 0.00 22 1013.8
20260507210545 70 180 3.0 6.0 0.00 0.04 0.00 22 1013.8
20260507210047 70 124 4.0 8.0 0.00 0.04 0.00 22 1013.8
20260507205048 70 96 5.0 6.0 0.00 0.04 0.00 22 1013.8
20260507203551 70 127 5.0 7.0 0.00 0.04 0.00 22 1013.8
20260507202052 71 141 4.0 7.0 0.00 0.04 0.00 21 1013.8
20260507201554 71 99 4.0 5.0 0.00 0.04 0.00 21 1013.8
20260507201053 71 169 3.0 7.0 0.00 0.04 0.00 21 1013.8
20260507200549 70 109 5.0 7.0 0.00 0.04 0.00 22 1013.8
20260507200051 71 110 5.0 7.0 0.00 0.04 0.00 21 1013.8
20260507195536 71 120 4.0 9.0 0.00 0.04 0.00 21 1013.8
20260507195038 71 166 6.0 5.0 0.00 0.04 0.00 21 1014.8
20260507194540 71 75 4.0 6.0 0.00 0.04 0.00 21 1014.8
20260507194033 71 333 4.0 6.0 0.00 0.04 0.00 21 1014.8
20260507193535 71 313 3.0 6.0 0.00 0.04 0.00 21 1014.8
20260507193038 70 67 4.0 7.0 0.00 0.04 0.00 19 1014.8
20260507192037 71 89 4.0 6.0 0.00 0.04 0.00 21 1014.8
20260507191539 70 8 3.0 8.0 0.00 0.04 0.00 22 1014.8
20260507190530 70 106 3.0 6.0 0.00 0.04 0.00 22 1014.8
20260507185530 70 113 4.0 10.0 0.00 0.04 0.00 22 1014.8
20260507185032 69 93 5.0 10.0 0.00 0.04 0.00 22 1014.8
20260507184032 69 31 7.0 10.0 0.00 0.04 0.00 22 1014.8
20260507183534 69 34 7.0 9.0 0.00 0.04 0.00 22 1014.8
20260507183037 71 157 6.0 11.0 0.00 0.04 0.00 22 1014.8
20260507182535 70 330 7.0 11.0 0.00 0.04 0.00 22 1014.8
20260507182036 69 44 6.0 11.0 0.00 0.04 0.00 22 1014.8
20260507181037 69 68 7.0 11.0 0.00 0.04 0.00 22 1014.8
20260507180539 68 295 9.0 13.0 0.00 0.04 0.00 22 1015.8
20260507180040 69 55 8.0 12.0 0.00 0.04 0.00 22 1015.8
20260507175530 68 340 7.0 12.0 0.00 0.04 0.00 22 1015.8
20260507175026 68 33 6.0 11.0 0.00 0.04 0.00 22 1015.8
20260507174026 67 356 8.0 13.0 0.00 0.04 0.00 23 1015.8
20260507173528 68 308 5.0 11.0 0.00 0.04 0.00 23 1015.8
20260507173030 67 334 8.0 15.0 0.00 0.04 0.00 23 1015.8
20260507172529 67 254 5.0 11.0 0.00 0.04 0.00 23 1015.8
20260507172030 67 50 7.0 12.0 0.00 0.04 0.00 24 1016.8
20260507171532 66 46 6.0 12.0 0.00 0.04 0.00 24 1016.8
20260507171031 67 31 8.0 10.0 0.00 0.04 0.00 24 1016.8
20260507170533 66 20 7.0 10.0 0.00 0.04 0.00 24 1016.8
20260507170035 66 334 5.0 11.0 0.00 0.04 0.00 25 1016.8
20260507165533 66 27 7.0 8.0 0.00 0.04 0.00 24 1016.8
20260507165035 66 93 6.0 8.0 0.00 0.04 0.00 24 1016.8
20260507164035 67 298 3.0 8.0 0.00 0.04 0.00 26 1016.8
20260507163538 65 356 4.0 8.0 0.00 0.04 0.00 26 1016.8
20260507163040 65 41 5.0 9.0 0.00 0.04 0.00 26 1016.8
20260507162039 65 70 6.0 7.0 0.00 0.04 0.00 27 1016.8
20260507161541 64 115 4.0 9.0 0.00 0.04 0.00 28 1016.8
20260507161040 64 260 4.0 7.0 0.00 0.04 0.00 30 1016.8
20260507160542 64 224 4.0 10.0 0.00 0.04 0.00 32 1016.8
20260507160043 63 19 6.0 7.0 0.00 0.04 0.00 32 1016.8
20260507155043 62 34 7.0 11.0 0.00 0.04 0.00 33 1016.8
20260507154545 62 14 6.0 8.0 0.00 0.04 0.00 33 1016.8
20260507154038 62 18 5.0 10.0 0.00 0.04 0.00 34 1016.8
20260507153540 61 28 7.0 10.0 0.00 0.04 0.00 35 1017.8
20260507153041 62 2 5.0 12.0 0.00 0.04 0.00 35 1017.8
20260507152042 62 12 6.0 6.0 0.00 0.04 0.00 35 1017.8
20260507151544 62 280 3.0 9.0 0.00 0.04 0.00 36 1017.8
20260507150544 62 21 5.0 7.0 0.00 0.04 0.00 36 1017.8
20260507150043 61 5 5.0 9.0 0.00 0.04 0.00 36 1017.8
20260507145540 61 330 4.0 8.0 0.00 0.04 0.00 37 1017.8
20260507145041 60 70 4.0 8.0 0.00 0.04 0.00 38 1017.8
20260507144539 60 248 4.0 10.0 0.00 0.04 0.00 38 1017.8
20260507144037 60 342 0.0 8.0 0.00 0.04 0.00 39 1017.8
20260507143539 60 319 5.0 7.0 0.00 0.04 0.00 41 1017.8
20260507143036 59 303 4.0 8.0 0.00 0.04 0.00 46 1017.8
20260507142531 58 12 7.0 8.0 0.00 0.04 0.00 46 1017.8
20260507142032 59 315 5.0 8.0 0.00 0.04 0.00 47 1017.8
20260507141530 59 339 4.0 9.0 0.00 0.04 0.00 48 1017.8
20260507141027 59 341 5.0 8.0 0.00 0.04 0.00 49 1017.8
20260507140529 59 331 3.0 7.0 0.00 0.04 0.00 53 1017.8
20260507135529 58 14 0.0 6.0 0.00 0.04 0.00 61 1017.8
20260507135032 58 356 3.0 8.0 0.00 0.04 0.00 64 1017.8
20260507134022 57 8 7.0 7.0 0.00 0.04 0.00 66 1017.8
20260507132520 57 346 4.0 6.0 0.00 0.04 0.00 67 1017.8
20260507132023 57 328 4.0 6.0 0.00 0.04 0.00 67 1017.8
20260507131018 57 312 0.0 4.0 0.00 0.04 0.00 68 1017.8
20260507130018 57 311 0.0 0.0 0.00 0.04 0.00 69 1017.8
20260507125516 57 311 0.0 0.0 0.00 0.04 0.00 70 1017.8
20260507125017 57 311 0.0 0.0 0.00 0.04 0.00 71 1017.8
20260507124519 57 311 0.0 0.0 0.00 0.04 0.00 71 1017.8
20260507124018 57 311 0.0 0.0 0.00 0.04 0.00 71 1017.8
20260507123520 56 311 0.0 3.0 0.00 0.04 0.00 71 1017.8
20260507123022 56 311 0.0 0.0 0.00 0.04 0.00 72 1017.8
20260507122520 56 311 0.0 0.0 0.00 0.04 0.00 72 1017.8
20260507122022 56 311 0.0 4.0 0.00 0.04 0.00 72 1017.8
20260507121524 56 311 0.0 4.0 0.00 0.04 0.00 72 1017.8
20260507121023 56 311 0.0 5.0 0.00 0.04 0.00 72 1017.8
20260507120524 56 311 4.0 4.0 0.00 0.04 0.00 72 1017.8
20260507120026 56 313 0.0 4.0 0.00 0.04 0.00 72 1017.8
20260507115525 56 313 0.0 3.0 0.00 0.04 0.00 72 1017.8
20260507115028 56 313 0.0 0.0 0.00 0.04 0.00 72 1017.8
20260507114529 56 313 0.0 0.0 0.00 0.04 0.00 72 1017.8
20260507114027 56 313 0.0 0.0 0.00 0.04 0.00 72 1017.8
20260507113530 56 313 0.0 0.0 0.00 0.04 0.00 71 1017.8
20260507113031 56 313 0.0 0.0 0.00 0.04 0.00 71 1017.8
20260507112530 56 313 0.0 0.0 0.00 0.04 0.00 71 1017.8
20260507112032 56 313 0.0 0.0 0.00 0.04 0.00 71 1016.8
20260507111533 56 313 0.0 5.0 0.00 0.04 0.00 71 1016.8
20260507111032 56 313 3.0 5.0 0.00 0.04 0.00 71 1016.8
20260507110534 56 313 0.0 6.0 0.00 0.04 0.00 70 1016.8
20260507110036 56 312 4.0 6.0 0.00 0.04 0.00 70 1016.8
20260507105535 56 303 0.0 5.0 0.00 0.04 0.00 70 1016.8
20260507105036 56 303 3.0 6.0 0.00 0.04 0.00 70 1016.8
20260507104538 56 302 3.0 5.0 0.00 0.04 0.00 70 1016.8
20260507104037 56 301 3.0 5.0 0.00 0.04 0.00 70 1016.8
20260507103539 56 335 3.0 5.0 0.00 0.04 0.00 70 1016.8
20260507103040 56 334 4.0 6.0 0.00 0.04 0.00 70 1016.8
20260507102540 56 335 0.0 5.0 0.00 0.04 0.00 70 1016.8
20260507102041 56 335 3.0 6.0 0.00 0.04 0.00 69 1016.8
20260507101543 56 336 4.0 5.0 0.00 0.04 0.00 69 1016.8
20260507101041 56 326 3.0 4.0 0.00 0.04 0.00 68 1016.8
20260507100543 56 329 3.0 4.0 0.00 0.04 0.00 68 1015.8
20260507100045 56 356 3.0 4.0 0.00 0.04 0.00 67 1015.8
20260507095545 56 34 0.0 4.0 0.00 0.04 0.00 67 1015.8
20260507094547 56 53 3.0 0.0 0.00 0.04 0.00 66 1015.8
20260507093548 56 53 0.0 4.0 0.00 0.04 0.00 66 1015.8
20260507093050 56 53 3.0 5.0 0.00 0.04 0.00 65 1015.8
20260507092548 56 54 4.0 5.0 0.00 0.04 0.00 65 1015.8
20260507092045 56 57 3.0 4.0 0.00 0.04 0.00 64 1015.8
20260507091547 56 59 3.0 4.0 0.00 0.04 0.00 64 1015.8
20260507091046 56 59 0.0 0.0 0.00 0.04 0.00 64 1015.8
20260507090549 56 59 0.0 5.0 0.00 0.04 0.00 63 1015.8
20260507090050 56 62 4.0 4.0 0.00 0.04 0.00 63 1015.8
20260507085548 56 66 3.0 7.0 0.00 0.04 0.00 62 1015.8
20260507085050 56 13 4.0 7.0 0.00 0.04 0.00 62 1014.8
20260507084552 56 8 5.0 8.0 0.00 0.04 0.00 61 1014.8
20260507084050 56 18 6.0 8.0 0.00 0.04 0.00 60 1014.8
20260507083552 56 37 7.0 10.0 0.00 0.04 0.00 60 1014.8
20260507082544 57 26 7.0 9.0 0.00 0.04 0.00 60 1014.8
20260507082041 57 33 6.0 7.0 0.00 0.04 0.00 59 1015.8
20260507081027 57 33 5.0 7.0 0.00 0.04 0.00 58 1015.8
20260507080524 57 23 4.0 6.0 0.00 0.04 0.00 57 1014.8
20260507075016 57 44 4.0 8.0 0.00 0.04 0.00 54 1014.8
20260507074008 57 312 7.0 10.0 0.00 0.04 0.00 54 1014.8
20260507073509 58 43 7.0 9.0 0.00 0.04 0.00 54 1014.8
20260507072002 58 47 4.0 7.0 0.00 0.04 0.00 53 1014.8
20260507071504 58 7 5.0 8.0 0.00 0.04 0.00 53 1014.8
20260507070504 58 16 4.0 10.0 0.00 0.04 0.00 52 1014.8
20260507070010 58 299 6.0 8.0 0.00 0.04 0.00 51 1014.8
20260507065505 58 339 7.0 8.0 0.00 0.04 0.00 51 1014.8
20260507065007 58 51 4.0 9.0 0.00 0.04 0.00 50 1014.8
20260507064508 58 327 3.0 7.0 0.00 0.04 0.00 50 1014.8
20260507064007 58 345 5.0 10.0 0.00 0.00 0.04 50 1014.8
20260507063504 58 39 4.0 7.0 0.00 0.00 0.04 50 1014.8
20260507063006 58 9 4.0 7.0 0.00 0.00 0.04 49 1014.8
20260507062006 58 116 4.0 7.0 0.00 0.00 0.04 48 1014.8
20260507061002 58 157 5.0 8.0 0.00 0.00 0.04 48 1014.8
20260507060504 58 12 4.0 9.0 0.00 0.00 0.04 48 1014.8
20260507055505 59 74 5.0 8.0 0.00 0.00 0.04 48 1014.8
20260507055007 59 113 4.0 9.0 0.00 0.00 0.04 48 1014.8
20260507054508 59 51 5.0 8.0 0.00 0.00 0.04 48 1014.8
20260507054007 59 53 6.0 9.0 0.00 0.00 0.04 47 1014.8
20260507053510 59 44 4.0 8.0 0.00 0.00 0.04 48 1014.8
20260507053011 59 271 3.0 7.0 0.00 0.00 0.04 47 1014.8
20260507052510 59 37 3.0 7.0 0.00 0.00 0.04 47 1014.8
20260507052011 59 67 4.0 7.0 0.00 0.00 0.04 47 1014.8
20260507051513 59 290 5.0 7.0 0.00 0.00 0.04 47 1014.8
20260507051012 59 45 5.0 7.0 0.00 0.00 0.04 47 1014.8
20260507050514 59 64 4.0 7.0 0.00 0.00 0.04 47 1014.8
20260507050016 59 313 3.0 7.0 0.00 0.00 0.04 46 1014.8
20260507045514 59 262 4.0 7.0 0.00 0.00 0.04 46 1014.8
20260507045016 59 25 4.0 8.0 0.00 0.00 0.04 46 1014.8
20260507044518 59 74 4.0 10.0 0.00 0.00 0.04 45 1014.8
20260507044017 60 77 5.0 10.0 0.00 0.00 0.04 45 1014.8
20260507043020 60 344 5.0 10.0 0.00 0.00 0.04 45 1014.8
20260507042519 60 238 7.0 10.0 0.00 0.00 0.04 45 1014.8
20260507042021 60 303 6.0 9.0 0.00 0.00 0.04 44 1014.8
20260507041523 60 171 6.0 10.0 0.00 0.00 0.04 44 1014.8
20260507040516 60 20 7.0 10.0 0.00 0.00 0.04 44 1014.8
20260507040016 61 332 4.0 12.0 0.00 0.00 0.04 44 1014.8
20260507035510 61 36 9.0 11.0 0.00 0.00 0.04 44 1014.8
20260507035013 61 30 8.0 12.0 0.00 0.00 0.04 44 1014.8
20260507034509 61 306 7.0 13.0 0.00 0.00 0.04 44 1014.8
20260507034007 61 0 5.0 9.0 0.00 0.00 0.04 44 1014.8
20260507033504 61 38 5.0 10.0 0.00 0.00 0.04 44 1014.8
20260507032506 61 57 7.0 10.0 0.00 0.00 0.04 44 1014.8
20260507031508 62 343 6.0 12.0 0.00 0.00 0.04 44 1014.8
20260507030510 62 351 9.0 13.0 0.00 0.00 0.04 43 1014.8
20260507030011 62 66 10.0 13.0 0.00 0.00 0.04 43 1014.8
20260507025509 62 24 8.0 11.0 0.00 0.00 0.04 43 1014.8
20260507025011 62 21 6.0 9.0 0.00 0.00 0.04 44 1013.8
20260507024508 62 53 7.0 10.0 0.00 0.00 0.04 44 1013.8
20260507024007 62 30 6.0 9.0 0.00 0.00 0.04 45 1013.8
20260507023509 62 35 8.0 10.0 0.00 0.00 0.04 45 1013.8
20260507023010 62 86 5.0 8.0 0.00 0.00 0.04 45 1013.8
20260507022509 62 44 5.0 10.0 0.00 0.00 0.04 45 1013.8
20260507022011 62 45 7.0 9.0 0.00 0.00 0.04 46 1013.8
20260507021513 62 185 5.0 9.0 0.00 0.00 0.04 46 1013.8
20260507021012 62 98 5.0 11.0 0.00 0.00 0.04 46 1013.8
20260507020513 62 61 7.0 10.0 0.00 0.00 0.04 46 1012.8
20260507020015 62 7 7.0 10.0 0.00 0.00 0.04 46 1012.8
20260507015514 62 13 6.0 10.0 0.00 0.00 0.04 45 1012.8
20260507015015 62 37 7.0 13.0 0.00 0.00 0.04 45 1012.8
20260507014517 62 42 8.0 12.0 0.00 0.00 0.04 44 1012.8
20260507014017 62 312 9.0 12.0 0.00 0.00 0.04 45 1012.8
20260507013519 62 37 7.0 14.0 0.00 0.00 0.04 45 1012.8
20260507012015 63 343 7.0 9.0 0.00 0.00 0.04 51 1011.8
20260507011017 63 68 5.0 8.0 0.00 0.00 0.04 52 1011.8
20260507010518 63 135 4.0 7.0 0.00 0.00 0.04 53 1011.8
20260507010020 63 84 4.0 8.0 0.00 0.00 0.04 52 1011.8